Burlington, CO

10:22 AM MST on February 19, 2017 (GMT -0700)
Kit Carson County

Weather History for KITR - August, 2013

Change the Weather History Date:

Wednesday, August 14, 2013

  Actual Average Record
Temperature  
Mean Temperature 69 °F 73 °F  
Max Temperature 81 °F 86 °F 100 °F (1937)
Min Temperature 57 °F 59 °F 45 °F (1920)
Cooling Degree Days 4    
Growing Degree Days 18 (Base 50)    
Moisture  
Dew Point 59 °F    
Average Humidity 80    
Maximum Humidity 94    
Minimum Humidity 45    
Precipitation  
Precipitation 0.55 in 0.08 in 3.00 in (1930)
Month to date precipitation 1.86 1.12  
Year to date precipitation 10.39 12.86  
Sea Level Pressure  
Sea Level Pressure 30.11 in    
Wind  
Wind Speed 10 mph (South)    
Max Wind Speed 22 mph    
Max Gust Speed 43 mph    
Visibility 8 miles    
Events Rain , Thunderstorm    
T = Trace of Precipitation, MM = Missing Value Source: NWS Daily Summary

Daily Weather History Graph

Daily Weather History Graph

Search for Another Location

Airport or City:

Trip Planner

Search our weather history database for the weather conditions in past years. The results will help you decide how hot, cold, wet, or windy it might be!

Date:

Astronomy

Aug. 14, 2013 Rise Set
Actual Time 6:01 AM MDT 7:45 PM MDT
Civil Twilight 5:32 AM MDT 8:13 PM MDT
Nautical Twilight 4:58 AM MDT 8:48 PM MDT
Astronomical Twilight 4:20 AM MDT 9:25 PM MDT
Moon 1:59 PM MDT (8/14) No Moon Set
Length of Visible Light 14h 41m
Length of Day
13h 43m
First Quarter, 53% of the Moon is Illuminated
Aug 14
First Quarter
Aug 20
Full
Aug 28
Last Quarter
Sep 5
New
Sep 12
First Quarter

Hourly Weather History & Observations

Time (MDT) Temp. Heat Index Dew Point Humidity Pressure Visibility Wind Dir Wind Speed Gust Speed Precip Events Conditions
12:00 AM 64.4 °F - 62.6 °F 94% 30.22 in 10.0 mi SE 9.2 mph - N/A Thunderstorm Mostly Cloudy
12:10 AM 64.4 °F - 62.6 °F 94% 30.22 in 10.0 mi SE 10.4 mph - N/A Thunderstorm Thunderstorm
12:38 AM 64.4 °F - 62.6 °F 94% 30.26 in 9.0 mi West 4.6 mph - 0.00 in Rain , Thunderstorm Light Rain
12:53 AM 64.0 °F - 62.1 °F 93% 30.12 in 2.5 mi NW 9.2 mph - 0.16 in Rain , Thunderstorm Heavy Thunderstorms and Rain
1:00 AM 62.6 °F - 60.8 °F 94% 30.25 in 2.5 mi NW 11.5 mph - 0.06 in Rain , Thunderstorm Heavy Thunderstorms and Rain
1:03 AM 64.4 °F - 60.8 °F 88% 30.25 in 3.0 mi NW 15.0 mph - 0.07 in Rain , Thunderstorm Heavy Thunderstorms and Rain
1:11 AM 64.4 °F - 60.8 °F 88% 30.26 in 6.0 mi North 11.5 mph - 0.08 in Rain , Thunderstorm Thunderstorms and Rain
1:53 AM 62.1 °F - 59.0 °F 90% 30.08 in 5.0 mi SSE 13.8 mph - 0.24 in Rain , Thunderstorm Thunderstorms and Rain
2:42 AM 62.6 °F - 59.0 °F 88% 30.25 in 10.0 mi NNE 8.1 mph - 0.03 in Rain Light Rain
2:53 AM 62.1 °F - 57.9 °F 86% 30.11 in 10.0 mi North 8.1 mph 17.3 mph 0.03 in   Overcast
3:53 AM 61.0 °F - 57.9 °F 90% 30.06 in 10.0 mi SSW 10.4 mph - 0.03 in   Overcast
4:53 AM 60.1 °F - 57.9 °F 93% 30.07 in 10.0 mi SSW 11.5 mph - 0.03 in Rain Light Rain
5:53 AM 57.9 °F - 55.9 °F 93% 30.06 in 10.0 mi South 13.8 mph - 0.01 in   Overcast
6:18 AM 59.0 °F - 55.4 °F 88% 30.21 in 10.0 mi North 9.2 mph - N/A   Mostly Cloudy
6:53 AM 61.0 °F - 57.9 °F 90% 30.08 in 10.0 mi NE 3.5 mph - N/A   Mostly Cloudy
7:53 AM 63.0 °F - 57.9 °F 84% 30.09 in 10.0 mi Calm Calm - N/A   Partly Cloudy
8:53 AM 66.0 °F - 59.0 °F 78% 30.08 in 10.0 mi SSW 13.8 mph - N/A   Scattered Clouds
9:53 AM 71.1 °F - 55.9 °F 59% 30.07 in 10.0 mi SW 9.2 mph - N/A   Clear
10:53 AM 73.9 °F - 59.0 °F 59% 30.07 in 10.0 mi SW 12.7 mph - N/A   Clear
11:53 AM 73.9 °F - 60.1 °F 62% 30.06 in 10.0 mi SW 6.9 mph - N/A   Scattered Clouds
12:53 PM 77.0 °F - 61.0 °F 58% 30.03 in 10.0 mi SW 11.5 mph - N/A   Scattered Clouds
1:53 PM 77.0 °F - 60.1 °F 56% 30.02 in 10.0 mi SSW 6.9 mph - N/A   Overcast
2:53 PM 78.1 °F - 59.0 °F 52% 30.00 in 10.0 mi South 8.1 mph - N/A   Partly Cloudy
3:53 PM 80.1 °F 80.4 °F 57.0 °F 45% 29.97 in 10.0 mi Calm Calm - N/A   Clear
4:53 PM 80.1 °F 80.6 °F 57.9 °F 47% 29.97 in 10.0 mi SSE 6.9 mph - N/A   Scattered Clouds
5:53 PM 73.9 °F - 63.0 °F 68% 29.98 in 10.0 mi SSE 15.0 mph 20.7 mph N/A   Clear
6:18 PM 73.4 °F - 62.6 °F 69% 30.10 in 10.0 mi SSE 12.7 mph 20.7 mph N/A Thunderstorm Clear
6:33 PM 73.4 °F - 62.6 °F 69% 30.11 in 10.0 mi SSE 12.7 mph - N/A Thunderstorm Clear
6:53 PM 72.0 °F - 61.0 °F 68% 29.98 in 10.0 mi SSE 10.4 mph - N/A Thunderstorm Thunderstorm
7:13 PM 69.8 °F - 62.6 °F 78% 30.13 in 8.0 mi SSE 11.5 mph - 0.00 in Rain Light Rain
7:53 PM 66.9 °F - 64.0 °F 90% 30.01 in 10.0 mi South 11.5 mph - 0.00 in   Clear
8:53 PM 66.0 °F - 63.0 °F 90% 30.02 in 8.0 mi South 9.2 mph - N/A   Clear
9:53 PM 64.9 °F - 63.0 °F 93% 30.03 in 7.0 mi SSW 10.4 mph - N/A   Clear
10:41 PM 60.8 °F - 53.6 °F 77% 30.26 in 10.0 mi North 18.4 mph 42.6 mph N/A Thunderstorm Squalls
10:53 PM 57.0 °F - 54.0 °F 89% 30.12 in 3.0 mi NNE 21.9 mph 36.8 mph 0.13 in Rain , Thunderstorm Heavy Thunderstorms and Rain
11:00 PM 57.2 °F - 55.4 °F 94% 30.24 in 2.5 mi NE 12.7 mph 27.6 mph 0.09 in Rain , Thunderstorm Heavy Thunderstorms and Rain
11:08 PM 57.2 °F - 55.4 °F 94% 30.24 in 5.0 mi ENE 10.4 mph 18.4 mph 0.13 in Rain , Thunderstorm Thunderstorms and Rain
11:36 PM 57.2 °F - 55.4 °F 94% 30.20 in 10.0 mi South 5.8 mph - 0.14 in   Overcast
11:53 PM 57.9 °F - 55.9 °F 93% 30.07 in 10.0 mi Calm Calm - 0.14 in   Overcast